Weather History for Superior, WI

Change the Weather History Date:

Saturday, October 27, 2012

  Actual Average Record
Temperature  
Mean Temperature 32 °F -  
Max Temperature 43 °F 54 °F 74 °F (1983)
Min Temperature 23 °F 35 °F 12 °F (1976)
Degree Days  
Heating Degree Days 32    
Moisture  
Dew Point 20 °F    
Average Humidity 64    
Maximum Humidity 87    
Minimum Humidity 37    
Precipitation  
Precipitation 0.00 in - - ()
Sea Level Pressure  
Sea Level Pressure 30.31 in    
Wind  
Wind Speed 5 mph (WSW)    
Max Wind Speed 15 mph    
Max Gust Speed 20 mph    
Visibility 10 miles    
Events      
Averages and records for this station are not official NWS values.
T = Trace of Precipitation, MM = Missing Value Source: NWS Daily Summary

Daily Weather History Graph

Daily Weather History Graph

Search for Another Location

Airport:

Trip Planner

Search our weather history database for the weather conditions in past years. The results will help you decide how hot, cold, wet, or windy it might be!

Date:

Astronomy

Oct. 27, 2012 Rise Set
Actual Time 7:43 AM CDT 5:59 PM CDT
Civil Twilight 7:12 AM CDT 6:31 PM CDT
Nautical Twilight 6:37 AM CDT 7:06 PM CDT
Astronomical Twilight 6:01 AM CDT 7:41 PM CDT
Moon 4:49 PM CDT (10/27) 5:34 AM CDT (10/27)
Length of Visible Light 11h 18m
Length of Day
10h 15m
Waxing Gibbous, 96% of the Moon is Illuminated
Oct 27
Waxing Gibbous
Oct 29
Full
Nov 6
Last Quarter
Nov 13
New
Nov 20
First Quarter

Hourly Weather History & Observations

Time (CDT) Temp. Windchill Dew Point Humidity Pressure Visibility Wind Dir Wind Speed Gust Speed Precip Events Conditions
12:15 AM 30.0 °F 26.5 °F 21.4 °F 70% 30.29 in 10.0 mi SW 3.5 mph - N/A   Overcast
12:35 AM 30.0 °F 25.2 °F 21.0 °F 69% 30.29 in 10.0 mi SSW 4.6 mph - N/A   Mostly Cloudy
12:55 AM 27.1 °F 21.8 °F 19.4 °F 73% 30.29 in 10.0 mi SSW 4.6 mph - N/A   Clear
1:15 AM 28.0 °F 21.7 °F 19.9 °F 72% 30.29 in 10.0 mi SW 5.8 mph - N/A   Clear
1:35 AM 27.7 °F 22.4 °F 19.8 °F 72% 30.29 in 10.0 mi SW 4.6 mph - N/A   Clear
1:55 AM 26.6 °F 21.2 °F 19.6 °F 75% 30.29 in 10.0 mi SW 4.6 mph - N/A   Clear
2:15 AM 26.6 °F 21.2 °F 19.4 °F 74% 30.29 in 10.0 mi SW 4.6 mph - N/A   Clear
2:35 AM 26.2 °F 20.7 °F 19.4 °F 75% 30.29 in 10.0 mi SW 4.6 mph - N/A   Scattered Clouds
2:55 AM 26.6 °F 21.2 °F 19.9 °F 76% 30.29 in 10.0 mi SW 4.6 mph - N/A   Overcast
3:35 AM 28.0 °F 24.2 °F 20.3 °F 73% 30.29 in 10.0 mi SW 3.5 mph - N/A   Overcast
3:55 AM 27.7 °F 21.3 °F 20.7 °F 75% 30.29 in 10.0 mi SW 5.8 mph - N/A   Overcast
4:15 AM 27.5 °F 23.6 °F 20.8 °F 76% 30.28 in 10.0 mi SW 3.5 mph - N/A   Overcast
4:35 AM 27.9 °F 24.0 °F 20.3 °F 73% 30.28 in 10.0 mi SW 3.5 mph - N/A   Overcast
4:55 AM 28.2 °F - 20.3 °F 72% 30.28 in 10.0 mi Calm Calm - N/A   Overcast
5:15 AM 28.4 °F 24.6 °F 20.3 °F 72% 30.29 in 10.0 mi WSW 3.5 mph - N/A   Overcast
5:35 AM 28.8 °F 23.7 °F 20.3 °F 71% 30.29 in 10.0 mi WSW 4.6 mph - N/A   Overcast
5:55 AM 29.1 °F 23.0 °F 20.7 °F 71% 30.29 in 10.0 mi SW 5.8 mph - N/A   Overcast
6:15 AM 29.1 °F 23.0 °F 20.8 °F 71% 30.29 in 10.0 mi SW 5.8 mph - N/A   Overcast
6:55 AM 28.8 °F 23.7 °F 21.2 °F 73% 30.30 in 10.0 mi WSW 4.6 mph - N/A   Overcast
7:15 AM 28.4 °F 23.3 °F 21.2 °F 74% 30.31 in 10.0 mi SW 4.6 mph - N/A   Overcast
7:35 AM 28.4 °F 23.3 °F 21.4 °F 75% 30.31 in 10.0 mi SW 4.6 mph - N/A   Overcast
7:55 AM 27.9 °F 24.0 °F 21.6 °F 77% 30.32 in 10.0 mi SW 3.5 mph - N/A   Overcast
8:15 AM 27.5 °F 23.6 °F 21.7 °F 79% 30.32 in 10.0 mi SW 3.5 mph - N/A   Overcast
8:35 AM 27.1 °F 21.8 °F 21.2 °F 78% 30.33 in 10.0 mi SSW 4.6 mph - N/A   Scattered Clouds
9:15 AM 32.0 °F 26.4 °F 23.0 °F 69% 30.33 in 10.0 mi SW 5.8 mph - N/A   Scattered Clouds
9:35 AM 32.7 °F 28.3 °F 23.0 °F 67% 30.33 in 10.0 mi WSW 4.6 mph - N/A   Scattered Clouds
9:55 AM 34.2 °F 28.2 °F 23.0 °F 64% 30.34 in 10.0 mi WSW 6.9 mph - N/A   Clear
10:15 AM 35.4 °F 29.7 °F 23.2 °F 61% 30.33 in 10.0 mi West 6.9 mph - N/A   Clear
10:35 AM 36.5 °F 29.7 °F 22.3 °F 56% 30.33 in 10.0 mi West 9.2 mph - N/A   Clear
10:55 AM 37.4 °F 31.4 °F 21.7 °F 53% 30.33 in 10.0 mi WSW 8.1 mph - N/A   Clear
11:15 AM 38.3 °F 30.5 °F 20.3 °F 48% 30.33 in 10.0 mi West 12.7 mph - N/A   Clear
11:35 AM 39.2 °F 33.0 °F 20.1 °F 46% 30.33 in 10.0 mi SW 9.2 mph - N/A   Clear
11:55 AM 39.7 °F 31.9 °F 19.8 °F 45% 30.32 in 10.0 mi WSW 13.8 mph - N/A   Mostly Cloudy
12:15 PM 39.4 °F 33.8 °F 19.2 °F 44% 30.32 in 10.0 mi West 8.1 mph - N/A   Overcast
12:35 PM 38.3 °F 30.9 °F 18.7 °F 45% 30.32 in 10.0 mi West 11.5 mph - N/A   Overcast
12:55 PM 38.3 °F 31.4 °F 19.4 °F 47% 30.31 in 10.0 mi WNW 10.4 mph - N/A   Mostly Cloudy
1:15 PM 39.6 °F 33.0 °F 19.6 °F 45% 30.31 in 10.0 mi NW 10.4 mph - N/A   Overcast
1:35 PM 41.2 °F 34.5 °F 18.0 °F 39% 30.30 in 10.0 mi NW 11.5 mph 17.3 mph N/A   Overcast
1:55 PM 39.2 °F 32.5 °F 17.2 °F 41% 30.30 in 10.0 mi WNW 10.4 mph - N/A   Mostly Cloudy
2:15 PM 42.1 °F 34.5 °F 17.2 °F 37% 30.29 in 10.0 mi NW 15.0 mph - N/A   Mostly Cloudy
2:35 PM 42.3 °F 36.3 °F 17.4 °F 37% 30.29 in 10.0 mi West 10.4 mph 19.6 mph N/A   Overcast
2:55 PM 40.5 °F 34.6 °F 18.0 °F 40% 30.29 in 10.0 mi NW 9.2 mph 17.3 mph N/A   Overcast
3:15 PM 40.6 °F 35.4 °F 17.2 °F 39% 30.29 in 10.0 mi West 8.1 mph - N/A   Overcast
3:35 PM 40.1 °F 33.6 °F 18.1 °F 41% 30.29 in 10.0 mi NW 10.4 mph - N/A   Overcast
3:55 PM 40.1 °F 34.7 °F 18.7 °F 42% 30.29 in 10.0 mi NW 8.1 mph - N/A   Overcast
4:15 PM 39.7 °F 33.7 °F 18.7 °F 43% 30.29 in 10.0 mi NW 9.2 mph - N/A   Overcast
4:35 PM 40.1 °F 34.7 °F 18.5 °F 42% 30.29 in 10.0 mi NNW 8.1 mph - N/A   Overcast
4:55 PM 39.2 °F 34.2 °F 18.5 °F 43% 30.29 in 10.0 mi NW 6.9 mph - N/A   Scattered Clouds
5:15 PM 37.9 °F 31.5 °F 18.1 °F 45% 30.29 in 10.0 mi NW 9.2 mph - N/A   Scattered Clouds
5:35 PM 35.6 °F 29.9 °F 18.5 °F 50% 30.29 in 10.0 mi NW 6.9 mph - N/A   Mostly Cloudy
5:55 PM 32.9 °F 28.5 °F 18.3 °F 55% 30.29 in 10.0 mi NW 4.6 mph - N/A   Scattered Clouds
6:15 PM 32.7 °F 29.6 °F 18.1 °F 55% 30.29 in 10.0 mi NW 3.5 mph - N/A   Clear
6:35 PM 32.0 °F - 18.3 °F 57% 30.30 in 10.0 mi Calm Calm - N/A   Clear
6:55 PM 28.4 °F - 18.9 °F 67% 30.31 in 10.0 mi Calm Calm - N/A   Clear
7:15 PM 28.2 °F - 19.2 °F 69% 30.31 in 10.0 mi Calm Calm - N/A   Clear
7:35 PM 28.6 °F - 19.4 °F 69% 30.31 in 10.0 mi Calm Calm - N/A   Clear
7:55 PM 26.2 °F - 19.6 °F 76% 30.32 in 10.0 mi Calm Calm - N/A   Clear
8:15 PM 27.3 °F - 20.1 °F 74% 30.32 in 10.0 mi Calm Calm - N/A   Clear
8:35 PM 25.3 °F - 21.0 °F 84% 30.32 in 10.0 mi Calm Calm - N/A   Clear
8:55 PM 24.8 °F - 19.9 °F 82% 30.32 in 10.0 mi Calm Calm - N/A   Clear
9:15 PM 23.7 °F - 20.1 °F 86% 30.32 in 10.0 mi Calm Calm - N/A   Clear
9:35 PM 23.2 °F - 19.6 °F 86% 30.33 in 10.0 mi Calm Calm - N/A   Clear
9:55 PM 24.1 °F - 20.7 °F 87% 30.33 in 10.0 mi Calm Calm - N/A   Mostly Cloudy
10:35 PM 25.9 °F - 21.6 °F 84% 30.34 in 10.0 mi Calm Calm - N/A   Overcast
11:15 PM 25.9 °F - 21.7 °F 84% 30.34 in 10.0 mi Calm Calm - N/A   Overcast
11:35 PM 25.5 °F - 21.0 °F 83% 30.34 in 10.0 mi Calm Calm - N/A   Overcast
11:55 PM 25.7 °F - 20.8 °F 82% 30.34 in 10.0 mi Calm Calm - N/A   Overcast